TimeCST,TemperatureF,Dew PointF,Humidity,Sea Level PressureIn,VisibilityMPH,Wind Direction,Wind SpeedMPH,Gust SpeedMPH,PrecipitationIn,Events,Conditions,WindDirDegrees,DateUTC
12:15 AM,32.0,30.2,93,30.07,0.5,Calm,Calm,-,N/A,Fog,Light Freezing Fog,0,2014-02-09 06:15:00
12:35 AM,32.0,30.2,93,30.08,0.5,Calm,Calm,-,N/A,Fog,Light Freezing Fog,0,2014-02-09 06:35:00
12:55 AM,32.0,30.2,93,30.07,0.2,Calm,Calm,-,N/A,Fog,Light Freezing Fog,0,2014-02-09 06:55:00
1:15 AM,32.0,30.2,93,30.07,0.5,East,4.6,-,N/A,Fog,Light Freezing Fog,100,2014-02-09 07:15:00
1:35 AM,32.0,30.2,93,30.08,0.5,ENE,3.5,-,N/A,Fog,Light Freezing Fog,70,2014-02-09 07:35:00
1:55 AM,32.0,30.2,93,30.08,0.2,ENE,4.6,-,N/A,Fog,Light Freezing Fog,70,2014-02-09 07:55:00
2:15 AM,32.0,30.2,93,30.06,0.2,NE,6.9,-,N/A,Fog,Light Freezing Fog,50,2014-02-09 08:15:00
2:35 AM,32.0,30.2,93,30.07,0.5,NE,5.8,-,N/A,Fog,Light Freezing Fog,50,2014-02-09 08:35:00
2:55 AM,32.0,30.2,93,30.07,0.2,NE,5.8,-,N/A,Fog,Light Freezing Fog,50,2014-02-09 08:55:00
3:15 AM,30.2,30.2,100,30.08,0.5,NE,6.9,-,N/A,Fog,Light Freezing Fog,40,2014-02-09 09:15:00
3:35 AM,30.2,30.2,100,30.08,0.5,NE,9.2,-,N/A,Fog,Light Freezing Fog,40,2014-02-09 09:35:00
3:55 AM,30.2,30.2,100,30.08,0.5,NNE,9.2,-,N/A,Snow,Light Snow,30,2014-02-09 09:55:00
4:15 AM,30.2,30.2,100,30.07,0.5,NE,10.4,-,N/A,Fog,Light Freezing Fog,40,2014-02-09 10:15:00
4:35 AM,30.2,30.2,100,30.07,0.5,NE,13.8,-,N/A,Fog,Light Freezing Fog,40,2014-02-09 10:35:00
4:55 AM,30.2,30.2,100,30.06,0.5,NE,15.0,-,N/A,Fog,Light Freezing Fog,40,2014-02-09 10:55:00
5:15 AM,30.2,30.2,100,30.04,0.5,NE,15.0,-,N/A,Fog,Light Freezing Fog,40,2014-02-09 11:15:00
5:35 AM,30.2,30.2,100,30.03,0.8,NE,15.0,-,N/A,,Overcast,50,2014-02-09 11:35:00
5:55 AM,30.2,30.2,100,30.06,0.8,NE,12.7,-,N/A,,Overcast,50,2014-02-09 11:55:00
6:15 AM,30.2,30.2,100,30.07,0.5,NE,10.4,-,N/A,Fog,Light Freezing Fog,50,2014-02-09 12:15:00
6:35 AM,30.2,30.2,100,30.10,0.8,NE,9.2,-,N/A,,Overcast,50,2014-02-09 12:35:00
6:55 AM,30.2,30.2,100,30.11,0.8,NE,12.7,-,N/A,,Overcast,50,2014-02-09 12:55:00
7:15 AM,30.2,30.2,100,30.11,1.0,NE,10.4,-,N/A,,Overcast,50,2014-02-09 13:15:00
7:35 AM,30.2,30.2,100,30.11,1.0,NE,9.2,-,N/A,,Overcast,50,2014-02-09 13:35:00
7:55 AM,30.2,30.2,100,30.13,0.8,NE,9.2,-,N/A,,Overcast,50,2014-02-09 13:55:00
8:15 AM,30.2,30.2,100,30.14,0.8,NE,10.4,-,N/A,,Overcast,40,2014-02-09 14:15:00
8:35 AM,30.2,30.2,100,30.14,0.8,NE,10.4,-,N/A,,Overcast,50,2014-02-09 14:35:00
8:55 AM,30.2,30.2,100,30.12,1.0,NE,8.1,-,N/A,,Overcast,50,2014-02-09 14:55:00
9:15 AM,30.2,30.2,100,30.15,1.0,NE,10.4,-,N/A,,Overcast,40,2014-02-09 15:15:00
9:35 AM,30.2,30.2,100,30.14,1.2,NE,9.2,-,N/A,,Overcast,40,2014-02-09 15:35:00
9:55 AM,30.2,30.2,100,30.14,1.2,NNE,9.2,-,N/A,,Overcast,30,2014-02-09 15:55:00
10:15 AM,30.2,30.2,100,30.15,1.5,NE,8.1,-,N/A,,Overcast,40,2014-02-09 16:15:00
10:35 AM,30.2,30.2,100,30.15,1.5,NE,10.4,-,N/A,,Overcast,50,2014-02-09 16:35:00
10:55 AM,30.2,30.2,100,30.15,1.5,NE,10.4,-,N/A,,Overcast,40,2014-02-09 16:55:00
11:15 AM,30.2,30.2,100,30.15,1.2,NE,11.5,-,N/A,,Overcast,40,2014-02-09 17:15:00
11:35 AM,30.2,30.2,100,30.15,1.8,NNE,11.5,-,N/A,,Overcast,30,2014-02-09 17:35:00
11:55 AM,30.2,30.2,100,30.16,1.8,NNE,9.2,-,N/A,,Overcast,20,2014-02-09 17:55:00
12:15 PM,30.2,30.2,100,30.17,2.0,NNE,11.5,-,N/A,,Overcast,30,2014-02-09 18:15:00
12:35 PM,30.2,30.2,100,30.16,2.0,NNE,12.7,-,N/A,,Overcast,30,2014-02-09 18:35:00
12:55 PM,30.2,30.2,100,30.16,2.0,NNE,12.7,-,N/A,,Overcast,20,2014-02-09 18:55:00
1:15 PM,30.2,30.2,100,30.16,1.8,NNE,9.2,-,N/A,,Overcast,30,2014-02-09 19:15:00
1:35 PM,30.2,30.2,100,30.16,3.0,NNE,10.4,-,N/A,,Overcast,20,2014-02-09 19:35:00
1:55 PM,30.2,28.4,93,30.14,2.5,NE,10.4,-,N/A,,Overcast,40,2014-02-09 19:55:00
2:15 PM,30.2,30.2,100,30.14,2.5,NNE,11.5,-,N/A,,Overcast,30,2014-02-09 20:15:00
2:35 PM,30.2,28.4,93,30.13,3.0,NE,10.4,-,N/A,,Overcast,40,2014-02-09 20:35:00
2:55 PM,30.2,28.4,93,30.13,3.0,NNE,10.4,-,N/A,,Overcast,20,2014-02-09 20:55:00
3:15 PM,30.2,28.4,93,30.14,3.0,NNE,12.7,-,N/A,,Overcast,30,2014-02-09 21:15:00
3:35 PM,30.2,28.4,93,30.14,3.0,NNE,11.5,-,N/A,,Overcast,30,2014-02-09 21:35:00
3:55 PM,30.2,28.4,93,30.15,2.5,NNE,13.8,17.3,N/A,,Overcast,30,2014-02-09 21:55:00
4:15 PM,28.4,28.4,100,30.14,2.5,NE,10.4,-,N/A,,Overcast,40,2014-02-09 22:15:00
4:35 PM,28.4,28.4,100,30.14,3.0,NNE,13.8,-,N/A,,Overcast,20,2014-02-09 22:35:00
4:55 PM,28.4,26.6,93,30.15,3.0,NNE,15.0,-,N/A,,Overcast,30,2014-02-09 22:55:00
5:15 PM,28.4,26.6,93,30.17,2.5,NNE,12.7,-,N/A,,Overcast,30,2014-02-09 23:15:00
5:35 PM,26.6,26.6,100,30.16,2.5,NNE,12.7,-,N/A,,Overcast,30,2014-02-09 23:35:00
5:55 PM,26.6,26.6,100,30.15,2.0,NNE,11.5,-,N/A,,Overcast,30,2014-02-09 23:55:00
6:15 PM,26.6,26.6,100,30.16,1.8,NNE,10.4,-,N/A,,Overcast,30,2014-02-10 00:15:00
6:35 PM,26.6,26.6,100,30.17,2.5,NNE,11.5,-,N/A,,Overcast,30,2014-02-10 00:35:00
6:55 PM,26.6,26.6,100,30.18,1.8,NNE,13.8,-,N/A,,Overcast,30,2014-02-10 00:55:00
7:15 PM,26.6,26.6,100,30.18,2.0,NE,13.8,-,N/A,,Overcast,40,2014-02-10 01:15:00
7:35 PM,26.6,26.6,100,30.18,1.8,NNE,11.5,-,N/A,,Overcast,30,2014-02-10 01:35:00
7:55 PM,26.6,26.6,100,30.19,1.8,NNE,13.8,-,N/A,,Overcast,20,2014-02-10 01:55:00
8:15 PM,26.6,26.6,100,30.19,1.8,NNE,12.7,18.4,N/A,,Overcast,30,2014-02-10 02:15:00
8:35 PM,26.6,26.6,100,30.20,1.8,NNE,13.8,-,N/A,,Overcast,30,2014-02-10 02:35:00
8:55 PM,26.6,24.8,93,30.21,2.0,NNE,13.8,-,N/A,,Overcast,20,2014-02-10 02:55:00
9:15 PM,26.6,24.8,93,30.22,1.8,NNE,11.5,-,N/A,,Overcast,20,2014-02-10 03:15:00
9:35 PM,24.8,23.0,93,30.23,1.8,NNE,12.7,-,N/A,,Overcast,30,2014-02-10 03:35:00
9:55 PM,24.8,23.0,93,30.22,1.5,NNE,11.5,18.4,N/A,,Overcast,30,2014-02-10 03:55:00
10:15 PM,24.8,23.0,93,30.23,1.5,NNE,10.4,17.3,N/A,,Overcast,30,2014-02-10 04:15:00
10:35 PM,24.8,23.0,93,30.24,2.0,NNE,15.0,18.4,N/A,,Overcast,20,2014-02-10 04:35:00
10:55 PM,23.0,23.0,100,30.24,2.5,NNE,12.7,17.3,N/A,,Overcast,30,2014-02-10 04:55:00
11:15 PM,23.0,23.0,100,30.25,3.0,NNE,13.8,-,N/A,,Overcast,20,2014-02-10 05:15:00
11:35 PM,23.0,21.2,93,30.26,4.0,NNE,11.5,18.4,N/A,,Overcast,20,2014-02-10 05:35:00
11:55 PM,23.0,21.2,93,30.27,4.0,NNE,10.4,-,N/A,,Overcast,20,2014-02-10 05:55:00